User: anonymous   Login
Location: Unspecified
(0.0000°N, 0.0000°E)
Time: 07:05:49
(UTC+00:00)
Language:

Envisat - Orbit

View from above orbital plane
View from above orbital plane
View from above satellite
View from above satellite

Ground track
Ground track

The orbit data is extracted from the following two-line orbital elements,

1 27386U 02009A   19110.94001517 +.00000011 +00000-0 +16982-4 0  9998
2 27386 098.1544 134.9557 0001400 090.6204 331.5046 14.37946473897687
Epoch (UTC): 20 April 2019 22:33:37
Eccentricity: 0.0001400
inclination: 98.1544°
perigee height: 764 km
apogee height: 766 km
right ascension of ascending node: 134.9557°
argument of perigee: 90.6204°
revolutions per day: 14.37946473
mean anomaly at epoch: 331.5046°
orbit number at epoch: 89768

The dashed part of the orbit path shows where the satellite is in the earth's shadow,  

DLR